Regional Weather Roundup
Issued by NWS Boston, MA

Home | Current Version | Previous Version | Text Only | Print | Product List | Glossary On
Versions: 1 2 3 4 5 6 7 8 9 10 11 12 13 14 15 16 17 18 19 20 21 22 23 24 25 26 27 28 29 30 31 32 33 34 35 36 37 38 39 40 41 42 43 44 45 46 47 48 49 50
000
ASUS41 KBOX 270410
RWRBOX

REGIONAL WEATHER ROUNDUP
NATIONAL WEATHER SERVICE TAUNTON MA
1200 AM EDT WED MAY 27 2015

NOTE:  "FAIR" INDICATES FEW OR NO CLOUDS BELOW 12,000 FEET WITH NO
SIGNIFICANT WEATHER AND/OR OBSTRUCTIONS TO VISIBILITY.  THE FOLLOWING
OBSERVATION LOCATIONS DO NOT REPORT PRESENT WEATHER...PROVINCETOWN...
SMITHFIELD...BLOCK ISLAND...KEENE...AND OXFORD.

MAZALL-270500-
EASTERN MASSACHUSETTS

CITY           SKY/WX    TMP DP  RH WIND       PRES   REMARKS
BOSTON         MOCLDY    70  61  73 SW16      30.15R
BEVERLY        MOCLDY    72  60  66 SW10      30.13R
LAWRENCE       MOCLDY    73  61  65 S8        30.15R
BEDFORD        MOCLDY    70  61  73 SW10      30.14R
BLUE HILL        N/A     67  59  75 SW15G24   30.17R
NORWOOD        PTCLDY    69  60  73 S8        30.17R
MARSHFIELD     MOCLDY    68  59  73 SW13G18   30.18R
PLYMOUTH       MOCLDY    64  59  83 SW14      30.20R
TAUNTON        PTCLDY    64  59  83 SW8       30.19R
NEW BEDFORD    PTCLDY    63  59  87 SW15      30.20R
$$

MAZALL-270500-
CAPE COD AND THE ISLANDS

CITY           SKY/WX    TMP DP  RH WIND       PRES   REMARKS
FALMOUTH       MOCLDY    61  59  94 SW16G24   30.22R
HYANNIS        MOCLDY    63  60  90 SW18      30.20R
CHATHAM        MOCLDY    61  59  93 SW9G18    30.22S
PROVINCETOWN   MOCLDY    59  54  82 SW18      30.19R
NANTUCKET      MOCLDY    60  58  92 SW15      30.24R
MARTHAS VNYRD  MOCLDY    59  58  96 SW10      30.23R
$$

MAZALL-270500-
CENTRAL AND WESTERN MASSACHUSETTS

CITY           SKY/WX    TMP DP  RH WIND       PRES   REMARKS
WORCESTER      MOCLDY    67  59  75 SW15      30.18S
FITCHBURG      MOCLDY    73  61  65 SW9       30.15S
ORANGE         MOCLDY    67  62  84 S3        30.16R
SPRINGFIELD    MOCLDY    68  61  77 S8        30.15R
WESTFIELD      MOCLDY    70  61  73 S10       30.15S
NORTH ADAMS    NOT AVBL
PITTSFIELD     PTCLDY    68  63  84 N3        30.15S
$$

RIZALL-270500-
RHODE ISLAND

CITY           SKY/WX    TMP DP  RH WIND       PRES   REMARKS
PROVIDENCE     PTCLDY    66  59  78 SW8       30.20R
NEWPORT        CLEAR     59  56  89 SW7       30.22R
BLOCK ISLAND   PTCLDY    57  54  88 SW14      30.22S
SMITHFIELD     PTCLDY   N/A N/A N/A SW6       30.18S
WESTERLY       CLEAR     61  57  87 SW6       30.22R
$$

CTZALL-270500-
CONNECTICUT

CITY           SKY/WX    TMP DP  RH WIND       PRES   REMARKS
BRADLEY INTL   MOCLDY    69  59  70 S9        30.15S
HARTFORD       PTCLDY    67  59  75 S8        30.17S
BRIDGEPORT     CLEAR     66  59  78 SW5       30.18R
DANBURY        CLEAR     69  59  70 S5        30.18R
GROTON         CLEAR     60  57  89 S5        30.20S
NEW HAVEN      CLEAR     64  58  80 S5        30.19R
CHESTER        FAIR      63  61  94 SW7       30.21S
MERIDEN        PTCLDY    66  58  75 S5        30.18S
WILLIMANTIC    PTCLDY    67  58  72 S7        30.19S
OXFORD         CLEAR     64  57  77 CALM      30.19S
$$

MEZ002-015-021-024-NHZ003-005-008-011-012-014-VTZ005-008-270500-
NORTHERN NEW ENGLAND

CITY           SKY/WX    TMP DP  RH WIND       PRES   REMARKS
PORTLAND ME    MOCLDY    74  63  68 SW7       30.09R
BANGOR ME      PTCLDY    62  57  83 S6        30.06R
CONCORD NH     MOCLDY    75  63  66 SW6       30.11S
MANCHESTER NH  MOCLDY    75  62  64 S7        30.11R
NASHUA NH      MOCLDY    74  63  68 CALM      30.14R
PORTSMOUTH NH  MOCLDY    74  62  66 SW8       30.09R
JAFFREY NH     MOCLDY    69  61  75 S5        30.18R
KEENE NH       MOCLDY   N/A N/A N/A CALM      30.14S
BURLINGTON VT  PTCLDY    76  61  59 S10       30.04R
MT. WASHINGTON FOG       52  52 100 W23         N/A  VSB 0
$$

NYZ052-076-270500-
EASTERN NEW YORK

CITY           SKY/WX    TMP DP  RH WIND       PRES   REMARKS
ALBANY         MOCLDY    76  65  68 S10       30.10S
NEW YORK CITY  MOCLDY    74  61  63 SW10      30.16S
$$

ANZALL-270500-
MARINE OBSERVATIONS

STATION/POSITION TIME  TEMP    WIND        PRES    VSBY  WAVE
                       AIR SEA DIR/SP/G                  HT/PER
                 (UTC) (F)     (DEG/KT/KT) (MB)    (MI)  (FT/S)
BOSTON BUOY      0350   60 54  210/  8/ 10   N/A           2/ 3
BUZZARDS BAY     0400          230/ 10/ 10   N/A
NANTUCKET SOUND  0350   61 59  220/ 17/ 19   N/A           2/ 3
MASS BAY-STELLWA 0304   59 50  210/ 12/ 14   N/A    1 7/8  3/ 5
ISLE OF SHOALS   0400   69     230/ 18/ 19   N/A
S OF BLOCK IS    0308      55                N/A           4/ 6
$$

......................KEY.........................
  SKY/WX - SKY CONDITION/PRESENT WEATHER
  TMP    - TEMPERATURE IN FAHRENHEIT
  DWPT   - DEWPOINT IN FAHRENHEIT
  RH     - RELATIVE HUMIDITY IN PERCENT
  WIND   - DIRECTION AND SPEED IN MPH
  PRES   - MEAN SEA LEVEL PRESSURE IN INCHES OF HG
  WCI    - WIND CHILL INDEX
  VSB    - VISIBILITY IN MILES
  HX     - HEAT INDEX
  TC     - TEMPERATURE IN CELSIUS
  VRB    - VARIABLE WIND DIRECTION
  N/A    - NOT AVAILABLE



USA.gov is the U.S. government's official web portal to all federal, state and local government web resources and services.